CST,Max TemperatureF,Mean TemperatureF,Min TemperatureF,Max Dew PointF,MeanDew PointF,Min DewpointF,Max Humidity, Mean Humidity, Min Humidity, Max Sea Level PressureIn, Mean Sea Level PressureIn, Min Sea Level PressureIn, Max VisibilityMiles, Mean VisibilityMiles, Min VisibilityMiles, Max Wind SpeedMPH, Mean Wind SpeedMPH, Max Gust SpeedMPH,PrecipitationIn, CloudCover, Events, WindDirDegrees
2013-11-1,60,50,39,37,35,30,81,59,36,30.16,29.96,29.81,10,10,10,24,12,31,0.00,2,,310
2013-11-2,59,46,32,34,30,23,93,61,25,30.32,30.21,30.09,10,8,0,15,8,21,0.00,0,,263
2013-11-3,62,52,41,36,33,30,70,53,32,30.09,29.88,29.74,10,10,4,39,21,52,0.00,0,,175
2013-11-4,60,50,41,43,38,34,87,61,36,30.05,29.94,29.75,10,9,0,25,16,32,0.00,3,,81
2013-11-5,59,47,35,57,48,34,100,93,71,30.12,29.96,29.83,10,7,2,25,13,34,0.75,8,Rain,184
2013-11-6,53,42,32,36,32,27,100,76,38,30.35,30.26,30.13,10,10,10,24,13,31,0.00,1,,304
2013-11-7,60,46,32,36,31,28,93,63,31,30.45,30.37,30.26,10,10,4,14,6,,0.00,0,,268
2013-11-8,69,54,39,34,30,23,76,47,17,30.25,30.00,29.84,10,10,10,37,18,43,0.00,0,,195
2013-11-9,60,46,33,41,36,32,93,66,39,30.29,30.13,29.96,10,10,10,15,6,20,0.00,0,,98
2013-11-10,59,52,44,52,43,37,94,76,59,30.37,30.29,30.22,10,10,7,13,7,,0.00,7,,137
2013-11-11,53,40,28,52,40,19,100,90,69,30.66,30.32,30.17,10,5,0,26,11,33,0.00,7,Fog-Rain,319
2013-11-12,35,28,21,18,11,1,80,51,24,30.85,30.74,30.63,10,10,10,20,12,25,0.00,0,,32
2013-11-13,55,39,23,28,20,14,80,51,33,30.63,30.35,30.11,10,10,10,24,14,30,0.00,0,,193
2013-11-14,59,46,33,34,25,16,87,51,29,30.10,29.97,29.91,10,10,10,18,14,23,0.00,0,,185
2013-11-15,59,44,28,43,35,28,100,73,42,29.91,29.77,29.61,10,10,5,22,8,28,0.00,0,,177
2013-11-16,75,62,48,45,38,30,76,47,22,29.60,29.46,29.39,10,10,10,31,19,38,0.00,0,,211
2013-11-17,62,50,39,34,24,10,70,39,13,30.13,29.81,29.41,10,10,7,31,15,40,0.00,0,,315
2013-11-18,59,44,28,30,22,14,87,49,20,30.29,30.22,30.15,10,10,10,12,5,16,0.00,0,,201
2013-11-19,60,48,37,32,29,23,65,47,34,30.19,29.98,29.82,10,10,10,32,14,38,0.00,0,,166
2013-11-20,62,53,44,48,40,28,88,61,43,29.90,29.81,29.76,10,10,10,26,13,33,0.00,0,,169
2013-11-21,51,36,21,46,30,18,100,87,76,30.53,30.19,29.89,10,8,2,30,16,36,0.02,8,Rain-Thunderstorm,9
2013-11-22,28,24,19,19,16,12,93,71,55,30.67,30.59,30.53,10,9,0,29,20,36,0.00,7,Snow,356
2013-11-23,32,28,23,21,19,16,80,66,60,30.74,30.68,30.60,10,10,10,16,8,21,0.00,4,,26
2013-11-24,28,24,21,21,16,10,86,69,55,30.67,30.47,30.21,10,10,10,16,6,18,0.00,5,,166
2013-11-25,35,29,23,28,25,21,93,85,70,30.23,30.19,30.14,10,10,10,14,8,,0.00,6,,227
2013-11-26,39,29,19,27,21,14,93,72,48,30.44,30.33,30.23,10,10,10,25,11,31,0.00,0,,348
2013-11-27,41,26,12,27,15,10,92,63,33,30.43,30.29,30.11,10,10,10,18,8,23,0.00,0,,203
2013-11-28,44,35,26,28,25,21,100,72,43,30.41,30.27,30.10,10,10,10,15,10,21,0.00,0,,42
2013-11-29,51,37,23,32,27,21,93,68,41,30.39,30.25,30.13,10,10,4,20,9,26,0.00,0,,153
2013-11-30,62,44,26,32,29,25,100,70,25,30.16,30.12,30.08,10,10,10,9,6,,0.00,0,,283